GW0692 Weather Reports


Display with metric or nautical units.
time (UTC)temp
F
wind
direction
speed
MPH
gust
MPH
rain 1hr
in
rain 24hr
in
rain mn
in
humidity
%
barometer
mb
20260903193525 79 286 6.0 7.0 0.00 0.00 0.00 34 1024.5
20260903193019 78 302 5.0 7.0 0.00 0.00 0.00 34 1024.6
20260903192517 78 246 6.0 7.0 0.00 0.00 0.00 35 1024.6
20260903192016 79 245 6.0 7.0 0.00 0.00 0.00 34 1024.6
20260903191513 80 194 2.0 3.0 0.00 0.00 0.00 33 1024.8
20260903191007 81 236 7.0 12.0 0.00 0.00 0.00 32 1024.9
20260903190507 82 2 4.0 5.0 0.00 0.00 0.00 32 1024.8
20260903190001 81 241 4.0 5.0 0.00 0.00 0.00 32 1025.1
20260903185457 81 241 7.0 7.0 0.00 0.00 0.00 32 1025.4
20260903184957 80 324 3.0 3.0 0.00 0.00 0.00 33 1025.4
20260903184454 80 277 5.0 7.0 0.00 0.00 0.00 32 1025.5
20260903183954 80 213 5.0 5.0 0.00 0.00 0.00 32 1025.4
20260903183448 80 240 5.0 5.0 0.00 0.00 0.00 31 1025.8
20260903182947 80 216 8.0 10.0 0.00 0.00 0.00 32 1025.8
20260903182447 79 236 4.0 5.0 0.00 0.00 0.00 32 1025.8
20260903181942 80 286 7.0 9.0 0.00 0.00 0.00 32 1025.8
20260903181441 79 215 5.0 7.0 0.00 0.00 0.00 32 1026.0
20260903180936 78 242 4.0 5.0 0.00 0.00 0.00 32 1025.9
20260903180431 78 234 6.0 9.0 0.00 0.00 0.00 33 1026.3
20260903175930 77 222 6.0 9.0 0.00 0.00 0.00 33 1026.3
20260903175425 78 242 1.0 2.0 0.00 0.00 0.00 33 1026.1
20260903174919 77 11 3.0 5.0 0.00 0.00 0.00 33 1026.3
20260903174415 80 54 3.0 3.0 0.00 0.00 0.00 32 1026.3
20260903173914 78 236 0.0 2.0 0.00 0.00 0.00 31 1026.1
20260903173415 79 240 3.0 3.0 0.00 0.00 0.00 32 1026.1
20260903172910 78 212 1.0 2.0 0.00 0.00 0.00 32 1026.3
20260903172411 79 58 2.0 5.0 0.00 0.00 0.00 32 1026.0
20260903171906 78 314 6.0 7.0 0.00 0.00 0.00 34 1026.1
20260903171401 77 127 5.0 5.0 0.00 0.00 0.00 33 1026.3
20260903170901 77 58 6.0 9.0 0.00 0.00 0.00 34 1026.1
20260903170355 78 45 7.0 12.0 0.00 0.00 0.00 34 1025.8
20260903165854 76 69 4.0 5.0 0.00 0.00 0.00 35 1025.9
20260903165349 77 84 3.0 5.0 0.00 0.00 0.00 34 1026.0
20260903164843 76 314 1.0 3.0 0.00 0.00 0.00 35 1026.1
20260903164338 76 140 5.0 10.0 0.00 0.00 0.00 36 1026.3
20260903163838 75 211 2.0 2.0 0.00 0.00 0.00 37 1026.3
20260903163335 77 95 6.0 12.0 0.00 0.00 0.00 37 1026.3
20260903162830 78 267 2.0 3.0 0.00 0.00 0.00 36 1025.9
20260903162327 77 175 3.0 3.0 0.00 0.00 0.00 36 1026.0
20260903161822 76 72 4.0 7.0 0.00 0.00 0.00 38 1025.9
20260903161318 76 68 3.0 7.0 0.00 0.00 0.00 39 1026.0
20260903160813 76 342 2.0 3.0 0.00 0.00 0.00 39 1026.1
20260903160312 77 208 4.0 5.0 0.00 0.00 0.00 38 1025.8
20260903155810 76 354 6.0 9.0 0.00 0.00 0.00 40 1025.4
20260903155306 77 279 5.0 9.0 0.00 0.00 0.00 39 1025.6
20260903154801 76 155 7.0 10.0 0.00 0.00 0.00 41 1025.6
20260903154257 75 91 2.0 2.0 0.00 0.00 0.00 41 1025.8
20260903153753 74 197 3.0 3.0 0.00 0.00 0.00 42 1025.6
20260903153249 73 94 3.0 7.0 0.00 0.00 0.00 44 1025.6
20260903152744 72 251 4.0 7.0 0.00 0.00 0.00 45 1025.8
20260903152241 73 241 2.0 5.0 0.00 0.00 0.00 44 1025.9
20260903151740 73 250 2.0 3.0 0.00 0.00 0.00 44 1025.8
20260903151236 74 227 1.0 2.0 0.00 0.00 0.00 43 1026.0
20260903150730 74 232 1.0 2.0 0.00 0.00 0.00 44 1025.8
20260903150225 74 193 0.0 2.0 0.00 0.00 0.00 44 1025.9
20260903145726 74 249 2.0 3.0 0.00 0.00 0.00 44 1026.0
20260903145221 72 350 2.0 3.0 0.00 0.00 0.00 45 1026.1
20260903144719 70 282 3.0 3.0 0.00 0.00 0.00 48 1026.1
20260903144215 70 247 4.0 5.0 0.00 0.00 0.00 48 1025.9
20260903143711 72 184 0.0 2.0 0.00 0.00 0.00 47 1025.9
20260903143207 72 163 2.0 2.0 0.00 0.00 0.00 46 1025.9
20260903142703 71 329 0.0 2.0 0.00 0.00 0.00 46 1025.6
20260903142159 70 200 2.0 3.0 0.00 0.00 0.00 48 1025.8
20260903141654 69 272 4.0 7.0 0.00 0.00 0.00 49 1025.8
20260903141148 68 256 4.0 5.0 0.00 0.00 0.00 50 1025.6
20260903140644 68 255 1.0 3.0 0.00 0.00 0.00 51 1025.6
20260903140140 66 236 3.0 5.0 0.00 0.00 0.00 52 1025.4
20260903135635 64 226 0.0 2.0 0.00 0.00 0.00 56 1025.5
20260903135130 64 241 0.0 2.0 0.00 0.00 0.00 57 1025.8
20260903134629 63 234 0.0 2.0 0.00 0.00 0.00 57 1025.6
20260903134125 63 240 2.0 3.0 0.00 0.00 0.00 57 1025.9
20260903133623 63 240 0.0 0.0 0.00 0.00 0.00 57 1025.5
20260903133119 64 229 1.0 2.0 0.00 0.00 0.00 57 1025.5
20260903132614 64 338 2.0 3.0 0.00 0.00 0.00 56 1025.5
20260903132113 64 246 0.0 0.0 0.00 0.00 0.00 56 1025.4
20260903131608 64 290 2.0 3.0 0.00 0.00 0.00 56 1025.3
20260903131107 64 214 1.0 2.0 0.00 0.00 0.00 57 1024.9
20260903130602 63 246 2.0 2.0 0.00 0.00 0.00 57 1024.8
20260903130057 63 230 3.0 3.0 0.00 0.00 0.00 58 1024.8
20260903125555 63 263 2.0 2.0 0.00 0.00 0.00 58 1024.9
20260903125051 63 236 2.0 3.0 0.00 0.00 0.00 58 1024.8
20260903124550 63 224 2.0 2.0 0.00 0.00 0.00 58 1024.6
20260903124045 62 238 3.0 3.0 0.00 0.00 0.00 58 1024.6
20260903123544 62 261 4.0 5.0 0.00 0.00 0.00 58 1024.5
20260903123043 62 226 0.0 2.0 0.00 0.00 0.00 58 1024.6
20260903122542 62 226 1.0 3.0 0.00 0.00 0.00 59 1024.8
20260903122037 63 254 0.0 2.0 0.00 0.00 0.00 58 1024.5
20260903121532 63 270 0.0 2.0 0.00 0.00 0.00 58 1024.3
20260903121028 63 239 1.0 2.0 0.00 0.00 0.00 58 1024.4
20260903120526 63 238 3.0 3.0 0.00 0.00 0.00 57 1024.1
20260903120021 63 240 2.0 3.0 0.00 0.00 0.00 58 1024.3
20260903115519 63 237 4.0 7.0 0.00 0.00 0.00 58 1024.1
20260903115014 63 245 1.0 2.0 0.00 0.00 0.00 58 1024.5
20260903114509 62 245 4.0 7.0 0.00 0.00 0.00 59 1024.5
20260903114005 62 259 2.0 3.0 0.00 0.00 0.00 59 1024.4
20260903113500 62 236 0.0 0.0 0.00 0.00 0.00 59 1024.4
20260903112956 62 238 2.0 3.0 0.00 0.00 0.00 58 1024.6
20260903112452 63 289 3.0 3.0 0.00 0.00 0.00 58 1024.4
20260903111951 63 233 2.0 3.0 0.00 0.00 0.00 57 1024.4
20260903111445 63 261 2.0 3.0 0.00 0.00 0.00 57 1024.8
20260903110941 63 241 3.0 5.0 0.00 0.00 0.00 56 1024.5
20260903110437 63 231 3.0 3.0 0.00 0.00 0.00 56 1024.8
20260903105931 63 249 0.0 2.0 0.00 0.00 0.00 56 1024.3
20260903105427 63 229 3.0 3.0 0.00 0.00 0.00 55 1024.5
20260903104926 63 241 0.0 2.0 0.00 0.00 0.00 53 1024.3
20260903104420 63 234 2.0 2.0 0.00 0.00 0.00 53 1024.5
20260903103917 63 238 2.0 3.0 0.00 0.00 0.00 51 1024.3
20260903103413 63 240 3.0 3.0 0.00 0.00 0.00 50 1024.4
20260903102908 63 244 3.0 5.0 0.00 0.00 0.00 49 1024.3
20260903102403 63 239 2.0 2.0 0.00 0.00 0.00 47 1024.5
20260903101902 63 250 1.0 2.0 0.00 0.00 0.00 46 1024.4
20260903101357 63 239 0.0 0.0 0.00 0.00 0.00 45 1024.4
20260903100853 64 247 1.0 2.0 0.00 0.00 0.00 44 1024.4
20260903100348 64 250 1.0 2.0 0.00 0.00 0.00 43 1024.4
20260903095844 65 260 2.0 3.0 0.00 0.00 0.00 42 1024.4
20260903095338 64 246 3.0 3.0 0.00 0.00 0.00 42 1024.5
20260903094834 64 249 2.0 3.0 0.00 0.00 0.00 42 1024.4
20260903094328 65 244 1.0 2.0 0.00 0.00 0.00 41 1024.4
20260903093824 65 249 2.0 3.0 0.00 0.00 0.00 40 1024.3
20260903093319 65 244 0.0 2.0 0.00 0.00 0.00 40 1024.4
20260903092814 65 246 0.0 2.0 0.00 0.00 0.00 40 1024.1
20260903092309 65 243 2.0 2.0 0.00 0.00 0.00 39 1024.3
20260903091808 65 244 1.0 2.0 0.00 0.00 0.00 39 1024.3
20260903091301 65 246 1.0 2.0 0.00 0.00 0.00 39 1024.3
20260903090758 66 243 0.0 0.0 0.00 0.00 0.00 38 1024.3
20260903090257 66 244 0.0 0.0 0.00 0.00 0.00 38 1024.3
20260903085755 66 247 0.0 2.0 0.00 0.00 0.00 38 1024.0
20260903085250 66 249 1.0 2.0 0.00 0.00 0.00 37 1024.1
20260903084748 66 245 2.0 3.0 0.00 0.00 0.00 37 1024.1
20260903084243 66 242 1.0 2.0 0.00 0.00 0.00 38 1024.1
20260903083739 65 245 2.0 2.0 0.00 0.00 0.00 38 1024.1
20260903083238 65 245 1.0 2.0 0.00 0.00 0.00 38 1024.3
20260903082737 66 240 1.0 2.0 0.00 0.00 0.00 39 1024.1
20260903082234 66 235 2.0 2.0 0.00 0.00 0.00 39 1024.3
20260903081728 65 241 0.0 0.0 0.00 0.00 0.00 39 1024.0
20260903081224 66 225 2.0 2.0 0.00 0.00 0.00 39 1024.3
20260903080720 66 240 2.0 2.0 0.00 0.00 0.00 39 1024.4
20260903080217 66 242 1.0 2.0 0.00 0.00 0.00 39 1024.5
20260903075716 66 245 1.0 2.0 0.00 0.00 0.00 39 1024.3
20260903075212 66 241 0.0 2.0 0.00 0.00 0.00 39 1024.6
20260903074710 67 246 0.0 0.0 0.00 0.00 0.00 38 1025.0
20260903074206 67 240 0.0 2.0 0.00 0.00 0.00 38 1024.6
20260903073701 67 246 2.0 2.0 0.00 0.00 0.00 37 1024.3
20260903073156 68 241 0.0 0.0 0.00 0.00 0.00 35 1024.4
20260903072652 68 244 0.0 0.0 0.00 0.00 0.00 35 1024.5
20260903072149 68 259 0.0 2.0 0.00 0.00 0.00 35 1024.8
20260903071644 68 241 0.0 0.0 0.00 0.00 0.00 35 1024.5
20260903071139 68 242 0.0 0.0 0.00 0.00 0.00 35 1024.8
20260903070634 68 241 0.0 0.0 0.00 0.00 0.00 36 1024.6
20260903070130 68 225 2.0 3.0 0.00 0.00 0.00 36 1024.6
20260903065629 68 243 0.0 2.0 0.00 0.00 0.00 36 1024.6
20260903065124 68 241 1.0 2.0 0.00 0.00 0.00 36 1024.6
20260903064618 68 240 0.0 0.0 0.00 0.00 0.00 37 1024.6
20260903064113 69 241 0.0 0.0 0.00 0.00 0.00 37 1024.6
20260903063609 69 242 1.0 2.0 0.00 0.00 0.00 38 1024.8
20260903063104 69 237 2.0 2.0 0.00 0.00 0.00 38 1024.5
20260903062559 70 245 2.0 2.0 0.00 0.00 0.00 39 1024.6
20260903062054 70 245 1.0 2.0 0.00 0.00 0.00 39 1024.5
20260903061550 70 244 1.0 2.0 0.00 0.00 0.00 38 1024.8
20260903061049 69 240 0.0 0.0 0.00 0.00 0.00 41 1024.8
20260903060549 69 242 0.0 0.0 0.00 0.00 0.00 40 1024.5
20260903060044 69 242 0.0 0.0 0.00 0.00 0.00 41 1025.0
20260903055541 69 242 0.0 0.0 0.00 0.00 0.00 41 1024.6
20260903055040 69 242 0.0 0.0 0.00 0.00 0.00 41 1024.5
20260903054536 68 244 0.0 0.0 0.00 0.00 0.00 41 1024.5
20260903054031 68 244 0.0 0.0 0.00 0.00 0.00 42 1025.0
20260903053526 68 240 0.0 2.0 0.00 0.00 0.00 43 1024.5
20260903053023 68 239 2.0 2.0 0.00 0.00 0.00 42 1024.9
20260903052518 69 240 0.0 0.0 0.00 0.00 0.00 42 1024.8
20260903052014 69 241 2.0 2.0 0.00 0.00 0.00 42 1024.4
20260903051508 69 245 3.0 3.0 0.00 0.00 0.00 41 1024.8
20260903051004 70 247 1.0 2.0 0.00 0.00 0.00 40 1024.6
20260903050503 71 258 2.0 2.0 0.00 0.00 0.00 38 1024.5
20260903045957 71 256 3.0 5.0 0.00 0.00 0.00 38 1024.5
20260903045453 71 236 3.0 3.0 0.00 0.00 0.00 38 1024.6
20260903044949 71 244 1.0 2.0 0.00 0.00 0.00 38 1024.8
20260903044445 72 251 1.0 2.0 0.00 0.00 0.00 37 1024.6
20260903043941 72 250 3.0 3.0 0.00 0.00 0.00 37 1024.5
20260903043436 72 242 3.0 3.0 0.00 0.00 0.00 37 1024.6
20260903042934 72 236 3.0 3.0 0.00 0.00 0.00 37 1024.6
20260903042430 72 225 3.0 3.0 0.00 0.00 0.00 37 1024.5
20260903041926 73 228 5.0 5.0 0.00 0.00 0.00 37 1024.9
20260903041422 73 235 4.0 5.0 0.00 0.00 0.00 36 1024.6
20260903040918 73 235 4.0 5.0 0.00 0.00 0.00 36 1024.6
20260903040417 73 235 5.0 5.0 0.00 0.00 0.00 36 1024.8
20260903035913 73 213 5.0 5.0 0.00 0.00 0.00 36 1024.8
20260903035408 73 232 5.0 5.0 0.00 0.00 0.00 37 1025.1
20260903034903 73 244 6.0 7.0 0.00 0.00 0.00 37 1024.8
20260903034358 73 236 6.0 9.0 0.00 0.00 0.00 37 1024.6
20260903033853 72 234 5.0 7.0 0.00 0.00 0.00 38 1024.8
20260903033348 72 224 5.0 5.0 0.00 0.00 0.00 38 1024.8
20260903032848 72 255 5.0 7.0 0.00 0.00 0.00 38 1024.6
20260903032344 71 212 6.0 9.0 0.00 0.00 0.00 38 1024.6
20260903031839 72 228 5.0 5.0 0.00 0.00 0.00 38 1024.8
20260903031338 71 236 5.0 7.0 0.00 0.00 0.00 38 1024.8
20260903030834 71 225 6.0 7.0 0.00 0.00 0.00 38 1024.6
20260903030330 72 233 4.0 5.0 0.00 0.00 0.00 38 1024.3
20260903025826 71 234 4.0 5.0 0.00 0.00 0.00 38 1024.5
20260903025321 71 238 5.0 5.0 0.00 0.00 0.00 38 1024.1
20260903024820 71 232 5.0 5.0 0.00 0.00 0.00 38 1024.3
20260903024320 72 215 4.0 5.0 0.00 0.00 0.00 38 1024.4
20260903023816 72 240 4.0 5.0 0.00 0.00 0.00 37 1024.1
20260903023311 72 237 5.0 5.0 0.00 0.00 0.00 38 1023.9
20260903022806 72 233 4.0 5.0 0.00 0.00 0.00 37 1024.0
20260903022306 72 234 3.0 3.0 0.00 0.00 0.00 37 1023.9
20260903021759 72 247 3.0 3.0 0.00 0.00 0.00 37 1023.9
20260903021255 72 228 4.0 5.0 0.00 0.00 0.00 37 1023.8
20260903020754 72 254 4.0 5.0 0.00 0.00 0.00 36 1023.8
20260903020249 73 236 3.0 3.0 0.00 0.00 0.00 36 1024.0
20260903015744 73 232 5.0 7.0 0.00 0.00 0.00 36 1023.8
20260903015240 73 230 4.0 5.0 0.00 0.00 0.00 36 1024.0
20260903014734 73 245 4.0 5.0 0.00 0.00 0.00 36 1023.9
20260903014229 73 245 4.0 5.0 0.00 0.00 0.00 36 1023.8
20260903013724 73 248 2.0 3.0 0.00 0.00 0.00 35 1023.9
20260903013223 74 236 3.0 3.0 0.00 0.00 0.00 35 1024.1
20260903012722 74 245 4.0 5.0 0.00 0.00 0.00 34 1023.8
20260903012221 75 264 4.0 5.0 0.00 0.00 0.00 34 1023.9
20260903011716 75 238 2.0 3.0 0.00 0.00 0.00 33 1023.8
20260903011210 75 257 2.0 3.0 0.00 0.00 0.00 33 1023.8
20260903010706 76 243 4.0 5.0 0.00 0.00 0.00 32 1023.6
20260903010205 76 247 5.0 7.0 0.00 0.00 0.00 32 1023.8
20260903005704 77 259 5.0 9.0 0.00 0.00 0.00 31 1023.8
20260903005200 77 246 10.0 12.0 0.00 0.00 0.00 31 1023.8
20260903004655 77 240 4.0 5.0 0.00 0.00 0.00 31 1023.8
20260903004150 78 243 7.0 10.0 0.00 0.00 0.00 30 1023.8
20260903003646 78 262 7.0 9.0 0.00 0.00 0.00 30 1024.0
20260903003141 78 242 4.0 5.0 0.00 0.00 0.00 32 1023.9
20260903002636 78 239 2.0 2.0 0.00 0.00 0.00 31 1023.9
20260903002130 78 253 4.0 5.0 0.00 0.00 0.00 31 1023.9
20260903001624 78 254 9.0 12.0 0.00 0.00 0.00 31 1024.0
20260903001119 78 197 5.0 7.0 0.00 0.00 0.00 31 1024.0
20260903000615 78 247 3.0 5.0 0.00 0.00 0.00 31 1023.9
20260903000114 77 240 3.0 3.0 0.00 0.00 0.00 32 1023.9
20260902235613 78 232 4.0 7.0 0.00 0.00 0.00 31 1023.9
20260902235108 78 267 3.0 3.0 0.00 0.00 0.00 31 1024.3
20260902234602 80 261 4.0 5.0 0.00 0.00 0.00 30 1023.9
20260902234101 81 251 5.0 9.0 0.00 0.00 0.00 30 1024.0
20260902233556 80 254 8.0 12.0 0.00 0.00 0.00 30 1024.0
20260902233050 80 254 6.0 9.0 0.00 0.00 0.00 29 1023.9
20260902232550 80 284 8.0 12.0 0.00 0.00 0.00 29 1024.1
20260902232044 80 246 14.0 17.0 0.00 0.00 0.00 29 1024.1
20260902231538 80 281 9.0 14.0 0.00 0.00 0.00 29 1024.1
20260902231033 81 263 6.0 9.0 0.00 0.00 0.00 29 1024.3
20260902230533 81 324 3.0 7.0 0.00 0.00 0.00 29 1024.3
20260902230027 82 247 6.0 9.0 0.00 0.00 0.00 29 1024.5
20260902225522 81 244 2.0 3.0 0.00 0.00 0.00 28 1024.4
20260902225021 81 225 5.0 7.0 0.00 0.00 0.00 29 1024.4
20260902224520 81 273 5.0 7.0 0.00 0.00 0.00 29 1024.5
20260902224017 82 250 8.0 10.0 0.00 0.00 0.00 28 1024.4
20260902223513 82 279 6.0 9.0 0.00 0.00 0.00 28 1024.5
20260902223012 81 252 7.0 9.0 0.00 0.00 0.00 29 1024.6
20260902222510 81 231 8.0 10.0 0.00 0.00 0.00 29 1024.3
20260902222004 80 241 7.0 12.0 0.00 0.00 0.00 29 1024.6
20260902221503 82 251 7.0 10.0 0.00 0.00 0.00 28 1024.8
20260902220953 81 269 7.0 9.0 0.00 0.00 0.00 28 1024.8
20260902220453 81 232 7.0 9.0 0.00 0.00 0.00 29 1024.8
20260902215942 81 203 8.0 12.0 0.00 0.00 0.00 29 1024.5
20260902215438 82 268 7.0 9.0 0.00 0.00 0.00 28 1024.4
20260902214934 82 257 3.0 5.0 0.00 0.00 0.00 29 1024.6
20260902214432 82 238 6.0 7.0 0.00 0.00 0.00 29 1025.0
20260902213927 81 293 7.0 9.0 0.00 0.00 0.00 29 1024.8
20260902213423 82 254 5.0 9.0 0.00 0.00 0.00 29 1024.9
20260902212922 81 259 7.0 9.0 0.00 0.00 0.00 29 1025.0
20260902212418 82 281 13.0 19.0 0.00 0.00 0.00 29 1025.0
20260902211914 82 244 4.0 5.0 0.00 0.00 0.00 29 1025.1
20260902211409 82 222 6.0 7.0 0.00 0.00 0.00 30 1025.1
20260902210904 82 249 7.0 9.0 0.00 0.00 0.00 30 1025.5
20260902210359 81 345 6.0 7.0 0.00 0.00 0.00 30 1025.4
20260902205857 81 243 5.0 7.0 0.00 0.00 0.00 31 1025.4
20260902205352 81 251 5.0 7.0 0.00 0.00 0.00 31 1025.4
20260902204848 82 224 11.0 17.0 0.00 0.00 0.00 30 1025.5
20260902204347 80 293 7.0 12.0 0.00 0.00 0.00 30 1025.5
20260902203843 81 298 6.0 9.0 0.00 0.00 0.00 30 1026.0
20260902203338 80 258 6.0 7.0 0.00 0.00 0.00 31 1025.6
20260902202832 82 299 13.0 17.0 0.00 0.00 0.00 30 1025.6
20260902202328 82 274 7.0 14.0 0.00 0.00 0.00 31 1025.8
20260902201824 80 216 4.0 5.0 0.00 0.00 0.00 33 1025.5
20260902201319 80 261 5.0 7.0 0.00 0.00 0.00 33 1025.8
20260902200814 80 238 4.0 5.0 0.00 0.00 0.00 31 1025.8
20260902200309 80 253 5.0 5.0 0.00 0.00 0.00 33 1026.0
20260902195805 80 246 11.0 15.0 0.00 0.00 0.00 33 1026.3
20260902195306 80 263 9.0 12.0 0.00 0.00 0.00 33 1026.1
20260902194758 80 255 9.0 12.0 0.00 0.00 0.00 32 1026.1
20260902194253 82 219 6.0 9.0 0.00 0.00 0.00 32 1026.3
20260902193749 81 247 3.0 5.0 0.00 0.00 0.00 32 1026.3